Location: Unspecified
(0.0000°N, 0.0000°E)
Time: 12:55:41
(UTC+00:00)

Envisat - Pass Details

Date: 03 April 2020
Orbit: 764 x 766 km, 98.1° (Epoch: 02 April)

Event Time Altitude Azimuth Distance (km) Brightness Sun altitude
Rises 05:22:11 0° 35° (NE) 3,215 6.9 -10.2°
Reaches altitude 10° 05:24:51 10° 47° (NE) 2,293 6.3 -9.6°
Maximum altitude 05:28:58 25° 102° (ESE) 1,493 5.5 -8.5°
Drops below altitude 10° 05:33:05 10° 157° (SSE) 2,301 5.7 -7.5°
Sets 05:35:44 0° 170° (S) 3,230 6.3 -6.8°
